Tracking 30995 objects as of 5-Jul-2025
HD Live streaming from Space Station
objects crossing your sky now

STARLINK-1523

Track STARLINK-1523 now!
10-day predictions
STARLINK-1523 is classified as:


NORAD ID: 46028
Int'l Code: 2020-055B
Perigee: 553.4 km
Apogee: 555.3 km
Inclination: 53.1 °
Period: 95.6 minutes
Semi major axis: 6925 km
RCS: Unknown
Launch date: August 7, 2020
Source: United States (US)
Launch site: AIR FORCE EASTERN TEST RANGE (AFETR)
Your satellite tracking list
SL-8 DEB
Track 1 satellite(s)




NASA's NSSDC Master Catalog

Two Line Element Set (TLE):
1 46028U 20055B   25186.30285780  .00001003  00000-0  86232-4 0  9996
2 46028  53.0542 157.1796 0001352  88.9723 271.1421 15.06402104271613
Source of the keplerian elements: AFSPC